TimeCST,TemperatureF,Dew PointF,Humidity,Sea Level PressureIn,VisibilityMPH,Wind Direction,Wind SpeedMPH,Gust SpeedMPH,PrecipitationIn,Events,Conditions,WindDirDegrees,DateUTC
12:29 AM,44.6,44.6,100,29.91,1.8,WSW,4.6,-,0.00,Rain,Light Rain,250,2012-11-07 06:29:00
12:41 AM,44.6,44.6,100,29.91,1.8,West,4.6,-,0.00,Rain,Light Rain,260,2012-11-07 06:41:00
12:56 AM,43.9,43.9,100,29.92,2.5,West,4.6,-,0.00,,Overcast,270,2012-11-07 06:56:00
1:25 AM,44.6,44.6,100,29.91,2.5,WSW,3.5,-,0.00,,Overcast,250,2012-11-07 07:25:00
1:43 AM,44.6,44.6,100,29.91,2.0,WSW,3.5,-,0.00,,Overcast,250,2012-11-07 07:43:00
1:56 AM,43.9,43.9,100,29.92,2.0,West,4.6,-,0.00,Rain,Light Rain,260,2012-11-07 07:56:00
2:26 AM,44.6,44.6,100,29.90,2.5,Calm,Calm,-,0.00,Rain,Light Rain,0,2012-11-07 08:26:00
2:56 AM,45.0,43.9,96,29.91,2.5,West,3.5,-,0.00,,Mostly Cloudy,270,2012-11-07 08:56:00
3:14 AM,44.6,44.6,100,29.90,2.5,West,5.8,-,N/A,,Overcast,280,2012-11-07 09:14:00
3:19 AM,44.6,44.6,100,29.90,2.5,West,5.8,-,N/A,,Overcast,270,2012-11-07 09:19:00
3:48 AM,44.6,44.6,100,29.90,1.8,WNW,4.6,-,N/A,,Overcast,290,2012-11-07 09:48:00
3:56 AM,45.0,45.0,100,29.91,2.0,WNW,5.8,-,N/A,,Overcast,290,2012-11-07 09:56:00
4:07 AM,44.6,44.6,100,29.91,4.0,WNW,5.8,-,N/A,,Overcast,300,2012-11-07 10:07:00
4:20 AM,44.6,44.6,100,29.91,5.0,WNW,8.1,-,N/A,,Overcast,300,2012-11-07 10:20:00
4:39 AM,44.6,44.6,100,29.91,5.0,NW,8.1,-,N/A,,Overcast,310,2012-11-07 10:39:00
4:56 AM,45.0,43.9,96,29.91,5.0,WNW,3.5,-,N/A,,Overcast,300,2012-11-07 10:56:00
5:28 AM,44.6,42.8,93,29.91,5.0,WNW,4.6,-,N/A,,Overcast,290,2012-11-07 11:28:00
5:37 AM,44.6,42.8,93,29.92,5.0,WNW,4.6,-,N/A,,Overcast,290,2012-11-07 11:37:00
5:56 AM,43.9,43.0,97,29.93,3.0,West,8.1,-,N/A,,Overcast,280,2012-11-07 11:56:00
6:15 AM,44.6,42.8,93,29.93,3.0,WNW,8.1,-,N/A,,Overcast,300,2012-11-07 12:15:00
6:56 AM,43.0,41.9,96,29.95,4.0,NW,8.1,-,N/A,,Overcast,310,2012-11-07 12:56:00
7:07 AM,44.6,42.8,93,29.94,3.0,NW,6.9,-,N/A,,Overcast,310,2012-11-07 13:07:00
7:16 AM,44.6,42.8,93,29.95,3.0,NW,8.1,-,N/A,,Overcast,320,2012-11-07 13:16:00
7:56 AM,43.9,41.9,93,29.96,3.0,WNW,10.4,-,N/A,,Overcast,300,2012-11-07 13:56:00
8:56 AM,45.9,41.9,86,29.98,3.0,NW,11.5,-,N/A,,Overcast,320,2012-11-07 14:56:00
9:35 AM,46.4,42.8,87,29.99,6.0,NNW,8.1,-,N/A,,Haze,340,2012-11-07 15:35:00
9:56 AM,47.8,41.9,80,30.00,6.0,NNW,10.4,-,N/A,,Haze,330,2012-11-07 15:56:00
10:56 AM,48.9,39.9,71,30.01,6.0,North,11.5,-,N/A,,Haze,360,2012-11-07 16:56:00
11:56 AM,50.9,41.0,69,30.01,7.0,NNW,10.4,-,N/A,,Mostly Cloudy,330,2012-11-07 17:56:00
12:56 PM,50.0,41.9,74,30.01,10.0,NE,8.1,-,N/A,,Mostly Cloudy,50,2012-11-07 18:56:00
1:56 PM,50.0,41.0,71,30.02,7.0,North,9.2,-,N/A,,Mostly Cloudy,10,2012-11-07 19:56:00
2:56 PM,47.8,41.0,77,30.05,7.0,NNE,8.1,-,N/A,,Mostly Cloudy,20,2012-11-07 20:56:00
3:56 PM,47.8,41.0,77,30.07,10.0,North,8.1,-,N/A,,Mostly Cloudy,360,2012-11-07 21:56:00
4:56 PM,46.9,41.0,80,30.09,10.0,North,5.8,-,N/A,,Overcast,350,2012-11-07 22:56:00
5:56 PM,46.9,41.0,80,30.12,8.0,NNW,8.1,-,N/A,,Overcast,330,2012-11-07 23:56:00
6:56 PM,46.9,41.0,80,30.14,10.0,North,4.6,-,N/A,,Overcast,360,2012-11-08 00:56:00
7:56 PM,46.9,41.9,83,30.15,9.0,North,3.5,-,N/A,,Overcast,350,2012-11-08 01:56:00
8:56 PM,45.9,41.9,86,30.16,9.0,NNW,4.6,-,N/A,,Overcast,330,2012-11-08 02:56:00
9:56 PM,45.9,41.9,86,30.16,9.0,Calm,Calm,-,N/A,,Overcast,0,2012-11-08 03:56:00
10:56 PM,45.9,41.0,83,30.17,10.0,Calm,Calm,-,N/A,,Overcast,0,2012-11-08 04:56:00
11:56 PM,45.9,41.9,86,30.17,9.0,NNE,3.5,-,N/A,,Overcast,30,2012-11-08 05:56:00